Temperature
19 20 20 21 21 20 18 17 17 18 17 18 17 16 19 20 20 20 20 19 19 18 18 17 16 15 14 13 13 12 12 11 11 10 10 10 9 9 9 9 8 8 8 8
21 22 21 21 21 21 20 19 18 19 18 17 18 18 18 19 19 20 20 20 19 18 17 17 16 15 14 13 13 12 12 11 11 10 10 9 9 9 9 8 8 8 8 8
19 20 21 21 22 22 22 20 19 19 19 18 17 16 19 20 20 20 20 20 19 18 17 17 16 15 14 13 12 12 11 11 10 10 9 9 9 9 8 8 8 8 8 8
18 21 22 20 21 21 21 21 18 18 18 17 18 21 22 22 21 21 20 20 19 18 17 16 15 15 14 13 12 12 11 11 10 9 9 9 9 8 8 8 8 8 8 8
16 19 20 20 21 21 21 21 19 18 18 18 18 18 20 22 21 21 21 20 19 18 17 16 15 15 14 13 12 12 11 10 10 9 9 9 8 8 8 8 7 7 8 8
16 19 19 20 21 21 21 21 20 19 17 17 17 16 18 23 22 21 21 20 19 18 17 16 15 14 14 13 12 12 11 10 10 9 9 8 8 8 8 7 7 7 8 8
16 17 18 19 20 21 21 19 22 22 21 18 17 20 23 23 22 22 21 20 19 18 17 17 15 14 14 13 12 12 11 10 10 9 8 8 8 8 7 7 7 7 8 8
15 17 18 20 20 20 20 23 24 24 23 22 23 24 23 23 22 22 21 20 19 18 18 16 15 14 14 13 12 12 11 10 10 9 8 8 8 7 7 7 7 7 8 8
16 18 20 21 21 23 23 23 24 24 25 24 23 23 23 23 23 22 21 20 19 18 17 16 15 15 14 13 12 12 11 10 10 9 9 8 7 7 7 7 7 8 8 8
15 17 20 23 23 24 24 24 25 25 24 24 23 24 24 23 23 22 22 20 19 18 17 17 16 15 14 13 12 12 11 10 10 9 9 8 8 7 7 7 8 8 8 8
16 16 19 23 23 22 23 23 24 24 24 24 23 23 23 23 23 23 22 21 19 18 18 17 16 15 14 13 12 12 11 10 10 9 9 9 8 8 8 8 8 8 8 8
16 19 17 19 19 20 21 22 22 22 22 22 22 23 23 23 23 22 21 20 19 18 18 17 16 15 14 13 12 12 11 11 10 9 9 8 8 9 9 8 8 8 8 8
18 18 17 16 16 17 18 19 19 19 20 20 20 21 21 21 21 21 20 19 19 18 18 17 16 15 14 13 12 12 11 10 10 9 9 8 8 8 8 9 9 9 8 8
16 16 15 14 14 15 16 17 18 18 18 18 19 19 19 19 19 19 19 19 18 17 17 16 16 15 14 13 12 12 11 10 10 9 8 8 8 7 7 8 8 9 9 8
13 14 13 14 15 15 16 17 17 17 17 17 17 18 18 18 18 18 17 17 17 17 17 16 16 15 14 13 12 12 11 10 9 9 8 8 7 7 7 8 8 8 8 8
13 13 14 14 14 14 15 15 15 15 15 16 16 16 17 17 17 17 17 16 16 16 16 16 15 15 13 13 12 12 11 10 9 9 8 8 7 7 7 8 8 8 8 8
12 12 12 12 13 13 13 13 13 14 14 15 15 15 15 16 16 16 16 15 15 16 15 15 15 14 13 13 12 11 11 10 9 9 8 7 7 7 7 8 8 8 8 8
12 12 12 12 12 12 13 13 13 13 13 14 14 14 14 14 14 14 14 14 14 14 15 14 14 13 13 12 12 11 11 10 9 8 8 7 7 7 7 7 7 8 8 8
12 12 12 12 12 12 12 12 12 12 12 12 12 12 12 12 13 13 13 13 13 13 14 14 13 13 12 12 11 11 10 10 9 8 7 7 7 7 7 7 7 7 7 8
12 12 12 12 12 12 12 12 12 12 11 11 11 11 11 12 12 12 12 12 12 12 12 12 12 12 12 11 11 10 10 9 8 8 7 7 7 7 7 7 7 7 7 7
11 11 11 11 11 11 11 11 11 11 11 10 10 10 11 11 11 11 11 11 12 12 12 12 12 11 11 10 10 9 9 8 8 7 7 7 6 6 7 7 7 7 7 7
11 10 10 10 10 10 10 10 10 10 10 10 10 10 10 10 10 10 10 11 11 11 11 11 11 11 10 9 9 9 8 8 7 7 6 6 6 6 6 6 6 7 7 7
10 10 9 9 9 9 9 10 10 9 9 9 9 9 9 9 9 9 9 10 10 10 10 10 10 9 9 9 8 8 8 7 6 6 6 6 5 5 5 6 6 6 7 7
9 9 9 9 9 9 9 9 9 9 9 9 9 9 9 9 9 9 9 9 9 9 9 9 9 8 8 7 7 7 6 6 6 5 5 5 5 5 5 5 6 6 6 6
9 9 9 9 9 9 9 9 9 9 9 9 9 8 8 8 8 8 8 8 8 8 8 7 7 7 7 6 6 6 5 5 5 5 5 4 4 4 5 5 6 6 6 6
9 9 9 9 9 9 9 9 9 8 8 8 8 8 8 8 8 8 7 7 7 7 7 7 6 6 6 5 5 5 4 4 4 4 4 4 3 4 4 5 5 6 6 6
8 8 8 8 8 8 8 8 8 8 8 8 8 8 7 7 7 7 7 7 6 6 6 6 5 5 5 4 4 4 4 3 3 3 3 3 3 3 4 4 5 5 6 6
Wind_Speed
7 6 3 6 8 6 8 8 9 9 9 11 10 11 9 7 7 6 7 8 9 8 8 8 7 7 7 8 8 6 6 7 8 7 6 6 7 7 8 8 9 9 10 10
4 3 3 6 7 5 6 6 7 5 9 9 6 4 5 7 8 9 10 10 10 10 9 9 9 8 7 8 7 5 6 7 7 6 6 6 7 7 8 9 9 9 10 10
4 5 4 6 5 4 5 6 8 9 9 5 6 10 11 11 10 11 12 11 11 11 10 10 9 8 8 8 6 5 6 7 6 6 6 7 8 8 9 9 9 10 10 10
2 2 4 9 5 6 6 6 8 8 8 8 10 9 7 9 11 12 12 11 11 11 10 8 7 6 6 6 6 6 6 7 6 6 7 7 8 9 10 9 9 9 10 11
4 3 6 10 6 6 6 7 7 9 9 5 2 3 6 10 12 14 13 12 11 11 9 7 7 7 5 6 6 6 7 7 7 6 7 8 9 10 9 9 9 10 9 11
4 4 6 11 5 4 4 6 8 9 10 8 8 3 9 10 12 14 12 10 9 8 6 7 7 6 5 7 6 8 8 7 6 6 7 9 10 10 9 9 10 10 10 11
5 5 9 9 2 6 4 9 7 11 11 12 12 14 9 7 10 13 12 11 9 8 8 8 7 6 7 7 8 8 7 6 6 7 8 9 9 9 9 9 9 10 11 11
4 3 7 4 7 8 11 6 4 10 12 14 16 15 11 9 10 11 11 11 10 9 9 7 6 7 8 9 8 6 5 6 7 7 8 8 8 9 9 9 9 10 9 10
8 8 8 5 9 9 5 6 8 9 12 16 16 15 15 13 12 11 12 11 9 10 9 7 7 8 9 9 6 5 5 7 7 8 8 8 8 9 9 8 7 8 8 9
5 10 10 9 8 9 8 11 12 11 11 12 15 17 15 13 11 11 11 10 9 9 9 9 9 9 10 8 6 6 6 7 7 8 8 8 7 7 7 8 8 8 8 9
7 10 10 9 7 9 9 9 10 10 8 11 14 15 14 13 12 12 11 9 9 11 11 11 8 9 9 7 6 6 7 7 7 7 8 8 8 7 8 9 9 9 9 9
8 8 5 7 10 11 9 9 9 7 7 6 8 13 11 11 10 8 9 8 9 10 10 10 8 8 8 7 7 7 6 7 6 6 7 7 8 9 10 12 14 16 16 14
7 4 4 6 10 13 9 10 10 9 8 8 7 6 7 7 5 4 6 8 10 11 11 9 8 9 8 7 7 8 7 7 6 6 7 7 7 8 10 10 11 12 12 12
7 4 9 10 9 12 12 12 13 15 15 12 10 8 6 5 3 3 6 9 9 8 8 8 8 10 8 7 8 8 7 8 8 7 7 7 7 7 7 9 11 9 10 11
13 11 6 5 9 13 13 15 18 18 17 17 14 12 10 8 6 5 5 5 5 7 8 8 10 11 7 8 9 8 7 6 6 6 7 7 7 7 7 8 8 9 9 9
7 9 11 13 14 14 15 16 15 14 14 14 15 14 11 8 6 6 5 5 6 10 11 10 12 10 7 8 9 7 6 10 8 6 7 7 6 7 7 7 8 8 8 8
13 14 13 13 12 11 11 10 9 9 10 11 11 11 10 9 9 8 8 7 9 10 9 10 11 8 8 9 8 6 6 6 8 7 6 6 6 7 7 7 7 8 8 9
6 5 5 6 7 9 10 10 10 10 9 9 10 9 9 9 10 11 11 9 8 10 10 10 8 7 8 9 8 6 5 5 5 5 6 6 6 6 7 7 8 9 8 9
7 7 7 7 8 7 8 9 9 9 9 8 9 9 9 9 9 10 10 9 9 12 10 8 10 10 9 10 8 5 5 5 5 5 5 6 7 6 6 6 7 7 8 8
7 7 8 9 9 8 9 9 9 9 8 8 8 8 9 11 11 11 10 9 10 10 8 6 7 8 8 8 9 5 5 5 5 4 4 5 5 6 6 7 7 7 7 7
7 8 9 10 10 10 9 9 8 8 9 8 7 8 9 11 11 9 9 11 11 10 9 8 6 6 6 7 8 5 5 4 4 3 4 4 5 6 6 6 7 7 7 7
7 7 9 10 10 10 10 9 8 8 8 8 9 9 9 11 12 11 10 9 11 12 8 5 4 6 7 7 5 5 4 3 3 2 3 4 5 6 6 7 7 7 7 7
7 7 9 9 9 9 10 9 8 7 7 8 9 9 9 9 9 9 11 10 10 11 8 4 3 6 7 4 3 3 3 2 2 2 3 3 4 5 6 7 6 6 7 7
8 8 8 9 7 7 8 9 9 7 8 8 8 9 8 8 9 8 8 12 12 9 5 3 2 4 5 2 2 2 2 1 0 2 3 3 4 5 5 6 6 6 6 8
9 9 8 8 8 8 9 9 9 8 8 8 9 10 8 6 7 9 9 9 9 6 3 2 2 4 3 3 3 3 2 2 2 2 3 4 4 5 5 5 6 6 6 7
9 8 9 9 8 8 8 7 6 7 7 8 8 8 8 7 8 7 6 6 6 4 2 2 3 3 3 4 4 4 3 3 3 3 4 4 5 5 5 6 7 6 6 6
9 8 7 8 8 7 6 6 7 8 7 7 8 8 8 8 7 7 7 5 4 3 3 3 4 5 5 5 5 5 4 4 4 4 4 5 5 5 6 7 6 6 6 6
Wind_Direction
232 244 250 256 263 201 192 194 192 229 230 247 231 221 223 219 211 215 231 233 232 235 242 246 253 258 259 265 270 265 263 263 263 266 266 265 268 271 273 274 277 276 280 280
272 266 266 264 268 231 206 196 213 243 258 250 238 206 228 221 209 221 233 235 236 236 238 241 244 250 257 263 267 263 260 264 269 271 270 267 269 273 276 276 277 278 278 278
256 305 355 300 258 218 222 207 184 209 239 229 197 210 221 219 212 220 229 231 231 231 230 233 235 237 245 254 265 266 263 268 271 271 271 272 276 279 279 279 279 280 279 277
182 46 253 250 246 218 227 239 210 225 242 215 214 223 233 214 208 222 227 228 230 230 230 231 230 233 242 253 259 262 267 269 270 272 275 278 280 280 280 279 279 280 281 280
138 190 271 294 273 185 189 259 221 220 238 211 119 40 291 231 212 220 222 220 223 221 219 222 227 230 235 252 258 263 265 264 267 270 277 282 283 282 281 280 280 279 279 279
140 170 234 253 267 166 120 276 242 202 211 172 133 187 254 237 212 223 226 220 220 215 207 218 227 213 221 245 254 258 258 258 262 266 272 278 280 281 280 278 279 283 283 279
176 213 256 255 233 130 162 243 240 199 199 175 187 212 227 226 211 217 219 216 209 200 205 218 213 194 223 241 247 249 251 257 263 267 272 275 277 277 280 282 284 284 284 284
151 192 261 248 148 183 220 240 232 210 202 196 216 231 239 242 231 221 216 212 199 198 214 217 199 197 227 243 247 247 249 259 267 272 277 282 279 283 283 281 285 287 287 289
189 220 246 239 220 243 243 247 244 223 218 209 221 234 238 240 236 224 215 209 197 197 211 218 207 201 224 242 241 240 249 262 272 280 280 279 279 283 289 284 281 285 286 288
241 265 266 274 266 265 243 238 250 238 228 209 219 233 237 239 234 222 214 205 192 191 208 223 217 213 224 233 224 227 248 264 276 285 289 289 282 277 280 282 283 285 285 286
255 274 296 302 304 305 301 286 277 267 243 224 224 236 237 237 232 221 210 196 187 196 211 223 219 223 227 222 212 228 248 264 277 280 284 291 289 278 276 271 262 267 278 278
244 258 255 292 324 332 328 326 320 311 303 278 235 245 249 246 241 221 206 192 193 202 214 223 217 227 228 215 207 222 248 263 271 279 285 287 295 301 278 265 270 262 256 257
268 329 20 344 356 360 6 9 14 19 6 350 335 295 280 273 264 218 202 197 204 211 217 218 217 228 229 212 205 217 238 257 268 276 283 289 294 301 309 308 293 281 274 271
2 55 45 19 3 8 21 24 34 34 26 19 10 5 354 338 322 237 223 219 214 212 216 214 219 233 227 206 206 220 237 256 264 270 278 283 287 290 292 299 308 310 304 294
36 55 68 25 23 24 23 27 31 25 17 15 13 13 9 357 328 292 266 243 221 221 226 218 224 235 215 199 207 219 234 250 261 269 274 278 283 288 289 290 292 297 303 305
32 43 39 33 26 19 21 23 22 12 8 7 6 2 357 348 324 304 285 245 228 235 233 222 229 232 202 196 207 220 234 253 265 272 279 285 288 291 294 295 297 299 300 303
45 32 19 16 9 6 8 7 2 353 355 357 351 345 343 342 335 320 300 274 253 254 249 234 236 224 199 197 202 217 231 252 268 275 274 282 289 292 293 294 296 298 297 297
57 40 15 358 349 347 349 349 346 343 341 332 332 338 341 338 325 313 308 302 287 276 263 246 236 217 205 199 199 210 223 240 253 265 274 281 289 291 292 294 297 299 303 307
27 15 359 351 341 333 329 328 327 323 322 325 329 327 320 315 310 309 309 303 290 282 277 248 224 211 208 203 196 201 216 237 253 265 276 286 293 296 298 299 301 303 306 310
8 357 348 341 338 331 321 319 320 319 319 321 323 325 326 321 318 317 314 301 284 275 275 258 229 215 207 200 192 192 207 229 248 264 280 290 298 302 305 306 308 309 310 311
345 340 337 334 327 322 316 314 314 314 316 320 321 318 314 315 318 318 318 314 307 297 288 259 231 212 197 187 184 187 201 219 238 259 280 293 302 307 309 313 315 314 315 317
322 321 321 321 321 319 316 314 310 309 314 320 321 320 322 323 324 322 312 303 306 306 301 274 237 202 185 174 177 185 197 210 230 257 282 295 302 307 311 317 317 318 320 322
303 302 305 307 307 303 307 309 310 310 308 310 311 310 309 305 307 310 314 313 316 310 305 283 233 186 166 161 170 179 182 193 232 273 292 300 304 307 311 316 319 320 324 328
294 295 295 295 302 308 307 304 307 303 297 297 296 296 299 305 309 304 303 310 319 315 314 301 212 155 137 128 138 142 140 136 316 313 314 313 313 313 314 318 322 324 326 328
287 288 290 298 302 296 289 293 300 300 302 302 302 303 300 289 290 304 312 319 326 328 338 11 75 111 113 111 110 102 86 57 16 344 330 326 322 320 319 323 327 325 327 329
280 281 280 277 274 275 279 282 283 287 290 292 296 300 303 303 303 308 313 320 328 336 354 34 68 84 86 91 88 79 62 36 15 359 344 335 327 324 324 327 327 328 327 328
279 278 279 287 287 278 276 275 275 280 281 280 287 293 299 305 308 315 319 324 341 1 36 64 73 76 76 75 71 62 49 32 16 1 349 340 333 328 327 326 326 325 327 327
Height
1512 1508 1508 1507 1504 1506 1512 1515 1521 1513 1511 1500 1495 1494 1494 1495 1498 1500 1502 1503 1504 1504 1504 1503 1502 1501 1499 1497 1495 1493 1491 1489 1487 1484 1482 1479 1476 1473 1470 1467 1464 1461 1458 1455
1508 1503 1505 1505 1499 1499 1502 1504 1507 1505 1503 1490 1490 1492 1493 1494 1495 1497 1498 1499 1500 1500 1500 1499 1498 1496 1495 1493 1491 1488 1486 1484 1481 1479 1476 1473 1470 1467 1464 1461 1457 1454 1451 1449
1517 1508 1504 1510 1497 1495 1495 1494 1498 1502 1495 1487 1489 1489 1489 1490 1492 1493 1494 1496 1496 1496 1496 1495 1494 1492 1490 1488 1486 1484 1481 1479 1476 1473 1470 1468 1464 1461 1458 1454 1451 1448 1446 1443
1518 1512 1518 1506 1488 1488 1490 1488 1489 1488 1486 1484 1483 1484 1486 1487 1488 1489 1490 1491 1491 1491 1491 1490 1489 1488 1486 1484 1482 1479 1476 1474 1471 1468 1465 1462 1459 1455 1452 1448 1445 1442 1440 1438
1522 1520 1513 1497 1485 1485 1489 1488 1482 1483 1481 1482 1483 1485 1484 1483 1484 1484 1485 1486 1486 1486 1486 1486 1485 1483 1482 1480 1477 1474 1472 1469 1466 1463 1459 1456 1452 1449 1446 1443 1440 1437 1435 1432
1520 1518 1518 1498 1481 1480 1485 1491 1476 1477 1478 1480 1482 1489 1481 1477 1478 1479 1479 1480 1481 1482 1482 1481 1480 1479 1477 1475 1472 1470 1467 1464 1460 1457 1454 1450 1447 1444 1441 1438 1434 1432 1429 1427
1515 1516 1506 1483 1479 1482 1496 1491 1471 1471 1472 1474 1476 1474 1472 1472 1472 1473 1474 1475 1476 1477 1477 1477 1476 1474 1472 1470 1467 1465 1462 1458 1455 1452 1448 1445 1442 1439 1436 1433 1430 1427 1424 1422
1515 1515 1506 1477 1479 1482 1478 1467 1467 1466 1466 1467 1466 1466 1467 1467 1467 1468 1468 1469 1471 1471 1471 1472 1471 1470 1468 1465 1463 1460 1457 1453 1450 1446 1443 1440 1437 1434 1431 1428 1425 1422 1419 1416
1499 1495 1479 1475 1474 1470 1468 1466 1464 1462 1461 1461 1461 1461 1461 1461 1462 1462 1463 1464 1465 1466 1467 1467 1466 1464 1463 1461 1458 1456 1452 1449 1445 1442 1438 1435 1432 1429 1426 1424 1420 1417 1414 1411
1489 1480 1472 1470 1468 1465 1463 1461 1459 1458 1457 1456 1455 1455 1455 1455 1456 1456 1457 1458 1459 1461 1461 1461 1460 1459 1457 1456 1453 1451 1448 1444 1441 1437 1434 1431 1428 1425 1422 1419 1416 1412 1409 1406
1484 1475 1470 1466 1465 1463 1460 1457 1455 1453 1452 1451 1450 1449 1449 1449 1449 1449 1450 1452 1453 1454 1455 1455 1455 1454 1453 1451 1448 1446 1443 1440 1436 1432 1429 1426 1423 1420 1417 1414 1412 1408 1405 1402
1480 1471 1471 1468 1464 1460 1457 1453 1451 1449 1447 1446 1445 1444 1444 1444 1443 1443 1444 1446 1448 1449 1451 1451 1450 1449 1448 1446 1444 1441 1438 1435 1431 1428 1424 1421 1418 1415 1413 1410 1407 1404 1401 1397
1472 1470 1469 1468 1464 1459 1455 1452 1450 1447 1446 1444 1443 1442 1441 1440 1439 1439 1440 1441 1444 1445 1446 1446 1445 1444 1443 1441 1439 1436 1434 1430 1427 1424 1420 1417 1414 1410 1407 1404 1402 1400 1396 1393
1468 1467 1468 1467 1465 1461 1457 1454 1450 1447 1446 1444 1442 1440 1439 1438 1438 1437 1437 1438 1440 1441 1441 1441 1441 1439 1438 1436 1434 1432 1429 1426 1423 1419 1416 1413 1410 1407 1403 1400 1396 1393 1391 1388
1473 1471 1472 1471 1466 1462 1458 1454 1450 1448 1447 1445 1443 1441 1439 1437 1437 1437 1436 1437 1437 1437 1437 1436 1435 1434 1433 1431 1429 1427 1424 1421 1418 1415 1412 1409 1406 1403 1400 1397 1393 1389 1386 1383
1478 1475 1472 1469 1466 1464 1460 1456 1454 1452 1450 1447 1445 1443 1441 1439 1437 1435 1434 1434 1433 1432 1431 1430 1428 1428 1427 1425 1423 1421 1419 1417 1414 1411 1408 1405 1402 1399 1396 1393 1389 1386 1383 1379
1477 1475 1473 1471 1469 1467 1464 1461 1458 1456 1452 1449 1446 1444 1441 1438 1435 1433 1431 1430 1428 1426 1425 1423 1422 1421 1420 1419 1418 1416 1414 1412 1409 1406 1403 1401 1398 1395 1392 1389 1385 1382 1380 1377
1481 1480 1478 1476 1472 1469 1465 1462 1460 1456 1453 1450 1446 1443 1440 1436 1433 1430 1427 1424 1421 1419 1417 1416 1415 1414 1414 1413 1412 1410 1409 1407 1404 1401 1399 1396 1393 1390 1388 1385 1382 1379 1376 1373
1482 1480 1478 1475 1472 1469 1466 1462 1459 1455 1452 1448 1444 1441 1438 1434 1430 1426 1422 1418 1415 1411 1409 1409 1407 1406 1406 1406 1405 1404 1403 1401 1399 1397 1394 1392 1389 1386 1384 1381 1378 1376 1373 1370
1480 1478 1476 1473 1470 1467 1463 1460 1456 1452 1449 1445 1442 1438 1434 1430 1426 1422 1418 1414 1410 1406 1402 1400 1399 1398 1398 1398 1398 1398 1397 1396 1394 1392 1390 1387 1385 1382 1380 1377 1375 1372 1370 1367
1478 1476 1473 1470 1467 1463 1460 1456 1453 1449 1446 1443 1439 1435 1431 1427 1423 1418 1413 1408 1404 1400 1396 1393 1391 1390 1391 1392 1392 1392 1391 1390 1389 1387 1385 1383 1380 1378 1376 1373 1371 1369 1366 1364
1475 1473 1470 1466 1463 1459 1456 1453 1450 1446 1443 1440 1436 1432 1428 1424 1419 1415 1410 1405 1399 1395 1391 1387 1385 1384 1385 1386 1386 1386 1386 1385 1384 1382 1381 1378 1376 1374 1372 1370 1368 1366 1364 1361
1472 1469 1466 1463 1460 1456 1453 1450 1447 1444 1440 1437 1433 1430 1425 1421 1416 1411 1405 1401 1396 1391 1387 1384 1381 1380 1381 1381 1382 1382 1381 1381 1380 1378 1376 1374 1372 1370 1368 1366 1364 1363 1361 1359
1468 1465 1463 1460 1456 1453 1450 1447 1444 1441 1437 1434 1430 1426 1422 1417 1412 1407 1402 1396 1391 1387 1383 1380 1378 1378 1377 1378 1378 1378 1377 1377 1376 1374 1372 1370 1368 1366 1364 1363 1361 1360 1358 1356
1464 1461 1458 1455 1452 1449 1446 1443 1440 1437 1433 1430 1426 1422 1418 1413 1408 1403 1398 1392 1388 1384 1380 1378 1376 1375 1375 1374 1375 1374 1374 1373 1372 1370 1368 1366 1364 1363 1361 1359 1358 1357 1356 1354
1459 1456 1453 1450 1447 1444 1441 1438 1434 1431 1428 1424 1420 1417 1413 1409 1404 1399 1394 1389 1385 1381 1378 1376 1374 1373 1372 1372 1372 1371 1371 1370 1369 1367 1365 1363 1361 1359 1358 1357 1356 1355 1353 1352
1454 1451 1448 1445 1442 1439 1436 1432 1429 1426 1422 1419 1415 1411 1408 1403 1399 1395 1390 1386 1382 1379 1376 1374 1372 1371 1370 1370 1370 1369 1369 1368 1366 1364 1362 1360 1358 1357 1355 1354 1353 1352 1351 1350